TimePDT,TemperatureF,Dew PointF,Humidity,Sea Level PressureIn,VisibilityMPH,Wind Direction,Wind SpeedMPH,Gust SpeedMPH,PrecipitationIn,Events,Conditions,WindDirDegrees,DateUTC
12:53 AM,64.0,51.1,63,29.82,10.0,South,4.6,-,N/A,,Overcast,190,2013-10-09 07:53:00
1:53 AM,63.0,51.1,65,29.80,10.0,SSE,6.9,-,N/A,,Mostly Cloudy,150,2013-10-09 08:53:00
2:53 AM,63.0,52.0,67,29.78,10.0,SSE,4.6,-,N/A,,Partly Cloudy,150,2013-10-09 09:53:00
3:53 AM,63.0,52.0,67,29.76,10.0,SE,5.8,-,N/A,,Overcast,140,2013-10-09 10:53:00
4:53 AM,63.0,52.0,67,29.75,10.0,South,11.5,23.0,N/A,,Mostly Cloudy,180,2013-10-09 11:53:00
5:06 AM,60.8,53.6,77,29.76,7.0,SSW,9.2,-,0.00,Rain,Light Rain,210,2013-10-09 12:06:00
5:29 AM,60.8,53.6,77,29.76,7.0,South,4.6,-,0.01,Rain,Light Rain,180,2013-10-09 12:29:00
5:53 AM,60.1,53.1,78,29.77,10.0,SSW,8.1,-,0.01,Rain,Light Rain,210,2013-10-09 12:53:00
6:15 AM,60.8,51.8,72,29.78,9.0,South,6.9,-,0.00,Rain,Light Rain,180,2013-10-09 13:15:00
6:38 AM,60.8,51.8,72,29.77,10.0,SSW,4.6,-,0.00,,Overcast,200,2013-10-09 13:38:00
6:53 AM,60.1,51.1,72,29.76,10.0,South,5.8,-,0.00,,Overcast,180,2013-10-09 13:53:00
7:53 AM,60.1,48.9,67,29.78,10.0,Variable,3.5,-,N/A,,Clear,0,2013-10-09 14:53:00
8:53 AM,62.1,50.0,65,29.78,10.0,SSE,10.4,-,N/A,,Mostly Cloudy,160,2013-10-09 15:53:00
9:53 AM,63.0,48.9,60,29.78,10.0,South,6.9,-,N/A,,Mostly Cloudy,190,2013-10-09 16:53:00
10:53 AM,64.0,50.0,60,29.77,10.0,South,10.4,17.3,N/A,,Mostly Cloudy,180,2013-10-09 17:53:00
11:53 AM,66.9,50.0,54,29.75,10.0,South,10.4,18.4,N/A,,Overcast,190,2013-10-09 18:53:00
12:53 PM,66.0,50.0,56,29.73,10.0,SW,10.4,19.6,0.00,,Mostly Cloudy,220,2013-10-09 19:53:00
1:53 PM,66.0,48.9,54,29.72,10.0,WSW,9.2,-,N/A,,Mostly Cloudy,250,2013-10-09 20:53:00
2:23 PM,60.8,51.8,72,29.73,1.2,West,9.2,26.5,0.07,Rain,Heavy Rain,260,2013-10-09 21:23:00
2:33 PM,59.0,53.6,82,29.73,3.0,Variable,4.6,-,0.08,Rain,Light Rain,0,2013-10-09 21:33:00
2:53 PM,61.0,53.1,75,29.73,3.0,SW,8.1,-,0.08,,Haze,220,2013-10-09 21:53:00
3:53 PM,61.0,51.1,70,29.72,10.0,SW,4.6,-,0.00,Rain,Light Rain,220,2013-10-09 22:53:00
4:53 PM,62.1,46.9,58,29.72,10.0,Variable,5.8,-,0.00,,Overcast,0,2013-10-09 23:53:00
5:53 PM,59.0,51.1,75,29.72,10.0,SW,3.5,-,0.02,Rain,Light Rain,230,2013-10-10 00:53:00
6:53 PM,59.0,52.0,78,29.71,10.0,SSW,4.6,-,0.00,,Mostly Cloudy,200,2013-10-10 01:53:00
7:53 PM,59.0,50.0,72,29.73,10.0,Variable,3.5,-,0.00,,Overcast,0,2013-10-10 02:53:00
8:53 PM,57.9,46.0,65,29.75,10.0,Calm,Calm,-,N/A,,Clear,0,2013-10-10 03:53:00
9:53 PM,55.9,46.0,69,29.76,10.0,Calm,Calm,-,N/A,,Clear,0,2013-10-10 04:53:00
10:53 PM,55.9,48.9,77,29.79,10.0,Calm,Calm,-,N/A,,Scattered Clouds,0,2013-10-10 05:53:00
11:53 PM,55.0,50.0,83,29.80,10.0,Calm,Calm,-,N/A,,Overcast,0,2013-10-10 06:53:00